Weather in Karpovo

Russia / Pskov Oblast     57°22′38″N   28°21′15″E
temp.,
°C
wind,
m/s
gust,
m/s
humid.,
%
clouds,
%
prec.,
mm/h
press.,
hPa
HPBL,
m
24 june, thu
thu2400:00+21nw019174 1.7 101811
03:00+20wnw1194100 3.1 101811
06:00+20sw2296100 2.6 101858
09:00+24sse238594 3.8 1017308
12:00+28sw246437 0.0 10171063
15:00+31sw464848 0.1 10162093
18:00+29w47562 0.0 1013822
21:00+24n22781 0.1 101524
25 june, fri
fri2500:00+21ese359378 0.5 101580
03:00+19sse229549 0.5 101437
06:00+19e239399 2.6 101356
09:00+24s237539 2.6 1013334
12:00+28ssw24583 0.1 10121120
15:00+30s34490 0.1 10111677
18:00+30ssw24555 0.0 10091592
21:00+19ssw61397100 2.3 1011405
26 june, sat
sat2600:00+19wsw3797100 4.0 1010221
03:00+18sw2499100 5.6 1010127
06:00+19wsw2497100 0.1 1010145
09:00+22nw348663 0.1 1011532
12:00+26wsw236378 0.0 10121261
15:00+25wsw556776 0.6 10121082
18:00+25w456685 0.4 10121208
21:00+21nw36785 0.4 1012145
27 june, sun
sun2700:00+17wnw358952 0.0 1014100
03:00+15w359111 0.0 101592
06:00+15w2588100 0.0 1015153
09:00+19w3470100 0.0 1015600
12:00+23w3456100 0.0 10151338
15:00+25wsw3448100 0.0 10141916
18:00+24wnw3557100 0.0 10141069
21:00+20wnw347495 0.0 101478
28 june, mon
mon2800:00+16nw3781100 0.0 1015136
03:00+14wnw2287100 0.0 101639
06:00+15wnw268686 0.0 1015189
09:00+19nw3668100 0.0 1016618
12:00+23nnw4552100 0.0 10161333
15:00+24n454776 0.0 10151527
18:00+23n3552100 0.0 1015791
21:00+19nnw2269100 0.0 101440